[[{"header":{"parameterUnit":"m.s-1","parameterCategory":1,"la1":30.2991,"la2":30.254,"lo1":-89.0895,"lo2":-89.0444,"dy":0.0017,"dx":0.0017,"nx":28,"ny":28,"refTime":"2023-10-30T09:00:00:Z","depth":0,"parameterNumber":2,"parameterNumberName":"U-component_of_WINDS"},"data":[0,0,0,0,0,0,0,0,0,0,0,0,0,0,0,0,0,0,0,0,0,0,0,0,0,0,0,0,0,0,0,0,0,0,0,0,0,0,0,0,0,0,0,0,0,0,0,0,0,0,0,0,0,0,0,0,0,0,-0.0243,-0.0243,0,-0.0293,-0.0294,-0.0294,-0.0299,-0.0299,-0.0298,-0.0298,-0.035,-0.0352,-0.0354,0,0,0,0,0,0,0,0,0,0,0,0,0,-0.0151,-0.0153,-0.0243,-0.0243,-0.0244,-0.0293,-0.0294,-0.0294,-0.03,-0.0299,-0.0298,-0.0298,-0.0349,-0.0352,-0.0354,0,0,0,0,0,0,0,0,0,0,0,0,0,-0.0195,-0.0153,-0.0243,-0.0253,-0.0254,-0.0293,-0.0294,-0.0295,-0.03,-0.0299,-0.0298,-0.0297,-0.0349,-0.0351,-0.0354,-0.0387,0,0,-0.0363,-0.0364,0,0,0,0,0,0,0,0,-0.0193,-0.0198,-0.025,-0.0252,-0.0254,-0.0289,-0.028,-0.0326,-0.03,-0.0282,-0.0298,-0.0297,-0.033,-0.0335,-0.0346,-0.039,-0.0392,-0.0363,-0.0365,-0.0366,-0.0367,0,0,0,0,0,0,0,-0.0189,-0.0196,-0.0263,-0.0251,-0.0253,-0.0254,-0.026,-0.0289,-0.031,-0.0284,-0.0284,-0.029,-0.0331,-0.0343,-0.0347,-0.0393,-0.0363,-0.0365,-0.0367,-0.0368,-0.0464,-0.0465,0,0,0,0,0,0,-0.0185,-0.0194,-0.0261,-0.0264,-0.022,-0.0257,-0.0263,-0.0279,-0.031,-0.0314,-0.0291,-0.029,-0.0339,-0.0344,-0.0349,-0.0389,-0.0366,-0.0369,-0.037,-0.0464,-0.0465,-0.0465,0,0,0,0,0,0,-0.0183,-0.0191,-0.0259,-0.0229,-0.0238,-0.0259,-0.0277,-0.028,-0.0292,-0.0315,-0.0319,-0.0299,-0.0338,-0.0345,-0.0377,-0.0391,-0.037,-0.0372,-0.0462,-0.0464,-0.0465,-0.047,0,0,0,0,0,0,-0.018,-0.019,-0.0203,-0.0229,-0.0239,-0.0287,-0.0278,-0.0281,-0.0297,-0.0296,-0.0324,-0.0328,-0.0338,-0.0373,-0.038,-0.0395,-0.0375,-0.0461,-0.0463,-0.0465,-0.0469,-0.0471,-0.0473,0,0,0,0,0,-0.0177,-0.0203,-0.0203,-0.0212,-0.0256,-0.0288,-0.0293,-0.0305,-0.0298,-0.0311,-0.0325,-0.0327,-0.0388,-0.0376,-0.0384,-0.04,-0.0461,-0.0463,-0.0464,-0.0468,-0.0471,-0.0473,0,0,0,0,0,0,-0.0178,-0.0206,-0.0208,-0.0243,-0.0263,-0.0288,-0.0306,-0.0308,-0.033,-0.0329,-0.0342,-0.0348,-0.038,-0.0393,-0.0379,-0.0433,-0.0424,-0.0427,-0.0423,-0.0426,-0.0429,-0.0425,-0.0377,0,0,0,0,0,-0.0182,-0.0205,-0.0229,-0.0258,-0.0267,-0.0285,-0.0299,-0.0305,-0.0327,-0.0335,-0.0352,-0.0373,-0.0396,-0.0412,-0.0435,-0.047,-0.0476,-0.0484,-0.0487,-0.0489,-0.0492,-0.0511,-0.0514,-0.0472,-0.0472,-0.0472,0,0,-0.0192,-0.021,-0.0224,-0.0258,-0.0275,-0.0298,-0.0292,-0.0317,-0.0335,-0.0339,-0.0371,-0.0383,-0.0407,-0.0441,-0.0456,-0.0452,-0.0505,-0.0491,-0.0492,-0.0495,-0.0513,-0.0517,-0.0521,-0.0473,-0.0473,-0.0473,0,0,-0.0221,-0.0237,-0.0262,-0.0278,-0.0302,-0.0313,-0.0319,-0.0344,-0.0353,-0.0384,-0.0388,-0.0409,-0.0449,-0.0466,-0.048,-0.0513,-0.0515,-0.052,-0.0533,-0.0551,-0.0554,-0.0557,-0.0569,-0.0573,-0.0523,-0.0523,-0.0523,0,-0.023,-0.0265,-0.0275,-0.03,-0.0315,-0.0319,-0.0345,-0.036,-0.039,-0.04,-0.0395,-0.0446,-0.0462,-0.0499,-0.0507,-0.0518,-0.0525,-0.0517,-0.0553,-0.0556,-0.0559,-0.057,-0.0574,-0.0523,-0.0523,-0.0523,-0.0523,0,-0.0275,-0.0299,-0.0317,-0.0345,-0.0362,-0.0387,-0.0401,-0.0417,-0.0421,-0.0432,-0.0464,-0.0483,-0.051,-0.0519,-0.0524,-0.0556,-0.0553,-0.055,-0.0541,-0.0563,-0.0574,-0.0578,-0.0524,-0.0524,-0.0524,-0.0523,0,0,-0.0308,-0.0341,-0.0347,-0.036,-0.0386,-0.0405,-0.0429,-0.0455,-0.0468,-0.0488,-0.0509,-0.0543,-0.054,-0.0555,-0.0562,-0.0577,-0.0602,-0.0573,-0.0573,-0.0578,-0.0638,-0.064,-0.0645,-0.0603,-0.0604,-0.0604,-0.0636,0,-0.0341,-0.0385,-0.0394,-0.0433,-0.0455,-0.0458,-0.0479,-0.0497,-0.0508,-0.0528,-0.054,-0.0563,-0.0558,-0.0567,-0.0582,-0.0596,-0.0614,-0.0593,-0.0623,-0.0623,-0.0617,-0.0651,-0.0654,-0.0683,-0.064,-0.0641,-0.0642,0,-0.0385,-0.0406,-0.0446,-0.0468,-0.0478,-0.0497,-0.052,-0.054,-0.0559,-0.0566,-0.0582,-0.0587,-0.0612,-0.0601,-0.0636,-0.0621,-0.0633,-0.0641,-0.0643,-0.0647,-0.0635,-0.0656,-0.0693,-0.0697,-0.0648,-0.0648,-0.0647,0,-0.0406,-0.0443,-0.0472,-0.0483,-0.0509,-0.0522,-0.0534,-0.0553,-0.0567,-0.0587,-0.0597,-0.0619,-0.0632,-0.065,-0.066,-0.0651,-0.0694,-0.0684,-0.07,-0.0699,-0.071,-0.0709,-0.0749,-0.0716,-0.0716,-0.0716,-0.0716,0,-0.0441,-0.0466,-0.0482,-0.05,-0.0527,-0.0536,-0.0563,-0.0574,-0.0591,-0.0611,-0.0614,-0.0633,-0.0645,-0.0665,-0.0673,-0.07,-0.0706,-0.0712,-0.0714,-0.0712,-0.0711,-0.0721,-0.0719,-0.0717,-0.0717,-0.0717,-0.0717,0,-0.047,-0.0481,-0.0513,-0.0534,-0.054,-0.0559,-0.0577,-0.0595,-0.0604,-0.0629,-0.0636,-0.0651,-0.0674,-0.0686,-0.0715,-0.072,-0.0751,-0.0752,-0.0745,-0.0746,-0.0761,-0.0759,-0.0809,-0.0816,-0.0778,-0.0778,-0.0779,0,-0.0493,-0.0511,-0.0534,-0.0548,-0.0559,-0.0581,-0.0595,-0.0604,-0.0619,-0.0642,-0.0656,-0.0679,-0.0699,-0.0736,-0.075,-0.0772,-0.0773,-0.0789,-0.0777,-0.0774,-0.0774,-0.0773,-0.0774,-0.0792,-0.0792,-0.0792,-0.0792,0,-0.0532,-0.0536,-0.0556,-0.0578,-0.0595,-0.0612,-0.063,-0.064,-0.0652,-0.0668,-0.0692,-0.0707,-0.0736,-0.0759,-0.0782,-0.0793,-0.0795,-0.0796,-0.0801,-0.08,-0.0795,-0.0798,-0.0751,-0.0795,-0.0795,-0.0795,-0.0794,-0.0794,-0.0558,-0.0575,-0.0593,-0.0615,-0.0629,-0.0645,-0.0662,-0.0673,-0.0693,-0.0717,-0.0721,-0.0746,-0.0764,-0.0794,-0.0806,-0.0825,-0.0822,-0.0829,-0.0831,-0.0833,-0.0834,-0.0791,-0.083,-0.083,-0.0829,-0.0829,-0.0829,0,-0.0597,-0.0609,-0.0629,-0.0653,-0.067,-0.0669,-0.0688,-0.0702,-0.0724,-0.074,-0.0759,-0.0785,-0.0807,-0.0822,-0.0844,-0.0856,-0.0857,-0.0862,-0.0861,-0.0864,-0.0836,-0.0829,-0.086,-0.086,-0.086,-0.086,-0.086,-0.086,-0.062,-0.0648,-0.0654,-0.0688,-0.0699,-0.0724,-0.0734,-0.0749,-0.0762,-0.0791,-0.0809,-0.0818,-0.0833,-0.0856,-0.0876,-0.0879,-0.0887,-0.0892,-0.0896,-0.0869,-0.0866,-0.0863,-0.0857,-0.0894,-0.0894,-0.0922,-0.0922,-0.0923]},{"header":{"parameterUnit":"m.s-1","parameterCategory":1,"la1":30.2991,"la2":30.254,"lo1":-89.0895,"lo2":-89.0444,"dy":0.0017,"dx":0.0017,"nx":28,"ny":28,"refTime":"2023-10-30T09:00:00:Z","depth":0,"parameterNumber":3,"parameterNumberName":"V-component_of_WINDS"},"data":[0,0,0,0,0,0,0,0,0,0,0,0,0,0,0,0,0,0,0,0,0,0,0,0,0,0,0,0,0,0,0,0,0,0,0,0,0,0,0,0,0,0,0,0,0,0,0,0,0,0,0,0,0,0,0,0,0,0,-8.1934,-8.1935,0,-8.2064,-8.2066,-8.2067,-8.2009,-8.2005,-8.2002,-8.1999,-8.2125,-8.2131,-8.2137,0,0,0,0,0,0,0,0,0,0,0,0,0,-8.1625,-8.1631,-8.1933,-8.1935,-8.1937,-8.2064,-8.2066,-8.2068,-8.2009,-8.2005,-8.2001,-8.1998,-8.2123,-8.213,-8.2138,0,0,0,0,0,0,0,0,0,0,0,0,0,-8.1758,-8.1633,-8.1933,-8.1923,-8.1924,-8.2064,-8.2066,-8.2068,-8.201,-8.2005,-8.2,-8.1996,-8.212,-8.213,-8.2139,-8.2294,0,0,-8.2168,-8.2172,0,0,0,0,0,0,0,0,-8.175,-8.1769,-8.1923,-8.1924,-8.1925,-8.2015,-8.2003,-8.2144,-8.2011,-8.1977,-8.1999,-8.1994,-8.2092,-8.2103,-8.2138,-8.23,-8.2305,-8.2169,-8.2175,-8.2179,-8.2182,0,0,0,0,0,0,0,-8.1741,-8.1763,-8.1985,-8.1925,-8.1926,-8.1909,-8.1923,-8.203,-8.2059,-8.198,-8.1976,-8.1992,-8.2091,-8.2129,-8.2141,-8.2307,-8.2169,-8.2177,-8.2183,-8.2187,-8.2602,-8.2607,0,0,0,0,0,0,-8.1733,-8.1756,-8.1981,-8.1989,-8.1824,-8.1919,-8.1934,-8.1991,-8.2058,-8.2064,-8.1996,-8.1989,-8.2115,-8.213,-8.2145,-8.2331,-8.2179,-8.2188,-8.2193,-8.2597,-8.2603,-8.2609,0,0,0,0,0,0,-8.1727,-8.1754,-8.1975,-8.1871,-8.1898,-8.193,-8.1994,-8.1996,-8.2034,-8.2071,-8.2075,-8.203,-8.2112,-8.2132,-8.2258,-8.2334,-8.2192,-8.2201,-8.259,-8.2599,-8.2606,-8.2703,0,0,0,0,0,0,-8.1718,-8.1752,-8.1813,-8.1873,-8.1904,-8.2089,-8.1999,-8.2002,-8.2052,-8.2043,-8.2104,-8.2109,-8.211,-8.2244,-8.2267,-8.2345,-8.2208,-8.2584,-8.2594,-8.2603,-8.2694,-8.2714,-8.2731,0,0,0,0,0,-8.1708,-8.1834,-8.1816,-8.1844,-8.1982,-8.2093,-8.2111,-8.2111,-8.2058,-8.2118,-8.2142,-8.2107,-8.2322,-8.2258,-8.2283,-8.2365,-8.2579,-8.2591,-8.2603,-8.2685,-8.271,-8.2731,0,0,0,0,0,0,-8.1778,-8.1841,-8.1823,-8.1973,-8.2029,-8.2083,-8.216,-8.2137,-8.2207,-8.2196,-8.2192,-8.2206,-8.2337,-8.2363,-8.229,-8.2518,-8.2442,-8.246,-8.2496,-8.252,-8.2538,-8.2528,-8.2216,0,0,0,0,0,-8.1812,-8.19,-8.1949,-8.2076,-8.2106,-8.2128,-8.2177,-8.2173,-8.2229,-8.2252,-8.2284,-8.2338,-8.2418,-8.247,-8.2545,-8.2697,-8.2709,-8.2766,-8.2784,-8.28,-8.2815,-8.2896,-8.2922,-8.2648,-8.2648,-8.2648,0,0,-8.1881,-8.1926,-8.1982,-8.2092,-8.2135,-8.2224,-8.2148,-8.2245,-8.2311,-8.2265,-8.2387,-8.2414,-8.2473,-8.2613,-8.2676,-8.2639,-8.2893,-8.2815,-8.2827,-8.2834,-8.2911,-8.2937,-8.296,-8.2656,-8.2655,-8.2653,0,0,-8.2053,-8.2097,-8.2208,-8.2253,-8.2319,-8.2334,-8.236,-8.2419,-8.2436,-8.2559,-8.2527,-8.2603,-8.274,-8.2784,-8.2824,-8.3013,-8.2983,-8.3038,-8.3135,-8.3215,-8.3236,-8.3255,-8.3322,-8.3346,-8.3053,-8.3053,-8.3053,0,-8.2129,-8.2265,-8.2267,-8.2368,-8.2416,-8.2382,-8.2493,-8.2536,-8.2622,-8.2656,-8.2614,-8.2786,-8.2824,-8.2973,-8.3019,-8.3053,-8.3082,-8.303,-8.3234,-8.3253,-8.3271,-8.3334,-8.3359,-8.3059,-8.3058,-8.3058,-8.3057,0,-8.2356,-8.245,-8.2531,-8.262,-8.2677,-8.2782,-8.2798,-8.2855,-8.2846,-8.2864,-8.2989,-8.3034,-8.3117,-8.3152,-8.3143,-8.33,-8.3275,-8.3234,-8.3157,-8.3303,-8.3362,-8.3387,-8.3068,-8.3066,-8.3064,-8.3062,0,0,-8.2575,-8.2664,-8.2693,-8.2733,-8.2804,-8.2876,-8.2979,-8.3064,-8.3113,-8.3173,-8.3258,-8.3376,-8.3339,-8.3384,-8.338,-8.345,-8.3596,-8.3399,-8.34,-8.3434,-8.377,-8.3801,-8.3829,-8.3577,-8.3581,-8.3585,-8.3765,0,-8.2751,-8.2935,-8.294,-8.3106,-8.3193,-8.3162,-8.3251,-8.3304,-8.3323,-8.3397,-8.3417,-8.3501,-8.3445,-8.3473,-8.3541,-8.3564,-8.3663,-8.3551,-8.3653,-8.3657,-8.3639,-8.386,-8.3892,-8.406,-8.3788,-8.3792,-8.3795,0,-8.2981,-8.3053,-8.323,-8.3289,-8.3326,-8.3406,-8.3484,-8.3556,-8.3614,-8.3623,-8.3675,-8.366,-8.3763,-8.3684,-8.3824,-8.3748,-8.379,-8.3807,-8.3814,-8.3822,-8.3734,-8.3874,-8.4113,-8.4138,-8.3832,-8.3829,-8.3826,0,-8.3123,-8.3263,-8.3387,-8.3421,-8.3494,-8.3551,-8.3584,-8.3637,-8.3688,-8.3755,-8.3787,-8.3865,-8.3906,-8.3965,-8.3971,-8.3913,-8.4112,-8.4033,-8.412,-8.412,-8.4162,-8.4159,-8.4411,-8.4191,-8.4191,-8.419,-8.419,0,-8.3319,-8.3428,-8.3451,-8.3527,-8.3648,-8.3651,-8.377,-8.3797,-8.3845,-8.3924,-8.3901,-8.3975,-8.3978,-8.4053,-8.4058,-8.4172,-8.4191,-8.42,-8.42,-8.4202,-8.4201,-8.4228,-8.4217,-8.4197,-8.4195,-8.4194,-8.4193,0,-8.3496,-8.3517,-8.365,-8.3709,-8.3726,-8.3812,-8.3861,-8.3932,-8.395,-8.405,-8.4074,-8.4101,-8.4188,-8.42,-8.4301,-8.4304,-8.4442,-8.4429,-8.4423,-8.4421,-8.4507,-8.4498,-8.4784,-8.4822,-8.4578,-8.458,-8.4582,0,-8.362,-8.3703,-8.3772,-8.3825,-8.3861,-8.3946,-8.3999,-8.4004,-8.4059,-8.4132,-8.4194,-8.428,-8.4349,-8.4489,-8.4516,-8.4593,-8.4581,-8.4677,-8.4592,-8.4592,-8.4582,-8.4576,-8.4584,-8.4692,-8.4695,-8.4697,-8.4699,0,-8.3836,-8.3843,-8.3921,-8.4003,-8.4067,-8.4131,-8.4191,-8.4235,-8.4248,-8.431,-8.4401,-8.4455,-8.4559,-8.4644,-8.472,-8.475,-8.4727,-8.4725,-8.4749,-8.4752,-8.4744,-8.4749,-8.4466,-8.4718,-8.4716,-8.4715,-8.4714,-8.4713,-8.399,-8.4063,-8.4124,-8.4211,-8.4258,-8.4315,-8.4385,-8.4413,-8.4489,-8.4577,-8.4575,-8.4674,-8.4729,-8.4829,-8.4865,-8.4941,-8.4909,-8.4944,-8.4953,-8.4961,-8.4969,-8.4734,-8.4955,-8.4954,-8.4953,-8.4953,-8.4953,0,-8.4205,-8.4243,-8.4324,-8.441,-8.4479,-8.4454,-8.4519,-8.4577,-8.4666,-8.472,-8.4789,-8.4892,-8.4974,-8.5009,-8.5088,-8.5142,-8.5133,-8.5163,-8.5158,-8.5166,-8.4993,-8.4964,-8.5169,-8.5169,-8.5169,-8.5169,-8.5169,-8.5169,-8.4325,-8.4447,-8.4461,-8.4605,-8.4641,-8.474,-8.478,-8.4831,-8.4875,-8.4993,-8.5062,-8.5085,-8.513,-8.5214,-8.5287,-8.5294,-8.5324,-8.5359,-8.5361,-8.52,-8.5178,-8.5157,-8.513,-8.5366,-8.5366,-8.5527,-8.5529,-8.553]}]]